Location: Unspecified
(0.0000°N, 0.0000°E)
Time: 15:52:40
(UTC+01:00)

Ariane H10 - Visible Passes

Search period start: 24 February 2017 00:00
Search period end: 06 March 2017 00:00
Orbit: 393 x 35094 km, 3.8° (Epoch: 22 February)

Date Brightness Start Highest point End Pass type
(mag) Time Alt. Az. Time Alt. Az. Time Alt. Az.
24 Feb 12.1 06:20:30 10° E 07:25:29 13° E 08:11:59 10° E visible
24 Feb 3.7 19:57:42 10° W 20:08:40 67° S 20:10:47 21° ESE visible
26 Feb 6.9 03:42:03 81° NNW 03:42:48 81° N 13:15:59 10° E visible
27 Feb 11.3 05:18:17 10° E 07:56:27 23° E 09:15:33 10° E visible
27 Feb 2.8 20:34:14 10° W 20:40:41 66° S 20:40:56 63° SSE visible
01 Mar 7.0 04:12:33 66° WNW 04:19:09 82° N 13:49:12 10° E visible
02 Mar 8.3 00:55:33 16° E 00:55:33 16° E 01:03:46 10° E visible
02 Mar 10.7 04:28:27 10° E 08:27:59 33° E 10:01:07 10° E visible
02 Mar 4.6 21:08:34 10° W 21:11:05 28° WSW 21:11:05 28° WSW visible
04 Mar 7.2 04:43:03 51° WNW 04:58:21 83° N 14:21:54 10° E visible
05 Mar 8.0 01:26:02 28° E 01:26:02 28° E 10:40:56 10° E visible
